| time (UTC) | temp C | wind direction | speed KPH | gust KPH | rain 1hr cm | rain 24hr cm | rain mn cm | humidity % | barometer mb |
| 20260510142642 | 23 | 350 | 4.8 | 6.4 | 0.00 | 0.00 | 0.00 | 19 | 1016.4 |
| 20260510141630 | 22 | 5 | 8.0 | 14.5 | 0.00 | 0.00 | 0.00 | 20 | 1016.3 |
| 20260510140626 | 22 | 33 | 8.0 | 17.7 | 0.00 | 0.00 | 0.00 | 21 | 1016.2 |
| 20260510135644 | 21 | 355 | 8.0 | 16.1 | 0.00 | 0.00 | 0.00 | 21 | 1016.3 |
| 20260510134638 | 21 | 19 | 11.3 | 19.3 | 0.00 | 0.00 | 0.00 | 21 | 1016.2 |
| 20260510133626 | 20 | 349 | 9.7 | 17.7 | 0.00 | 0.00 | 0.00 | 22 | 1015.5 |
| 20260510132645 | 20 | 5 | 4.8 | 12.9 | 0.00 | 0.00 | 0.00 | 23 | 1015.3 |
| 20260510131632 | 19 | 360 | 6.4 | 9.7 | 0.00 | 0.00 | 0.00 | 24 | 1015.3 |
| 20260510130629 | 19 | 348 | 4.8 | 8.0 | 0.00 | 0.00 | 0.00 | 24 | 1015.1 |
| 20260510125628 | 20 | 348 | 4.8 | 6.4 | 0.00 | 0.00 | 0.00 | 23 | 1015.2 |
| 20260510124626 | 20 | 360 | 3.2 | 6.4 | 0.00 | 0.00 | 0.00 | 22 | 1015.2 |
| 20260510123640 | 20 | 319 | 1.6 | 8.0 | 0.00 | 0.00 | 0.00 | 21 | 1015.2 |
| 20260510122634 | 20 | 19 | 3.2 | 12.9 | 0.00 | 0.00 | 0.00 | 21 | 1014.9 |
| 20260510121625 | 21 | 34 | 6.4 | 14.5 | 0.00 | 0.00 | 0.00 | 20 | 1014.6 |
| 20260510120638 | 21 | 18 | 6.4 | 12.9 | 0.00 | 0.00 | 0.00 | 20 | 1014.5 |
| 20260510115631 | 21 | 44 | 6.4 | 12.9 | 0.00 | 0.00 | 0.00 | 20 | 1014.3 |
| 20260510114629 | 21 | 20 | 8.0 | 11.3 | 0.00 | 0.00 | 0.00 | 20 | 1014.4 |
| 20260510113642 | 21 | 38 | 6.4 | 12.9 | 0.00 | 0.00 | 0.00 | 20 | 1014.3 |
| 20260510112632 | 21 | 36 | 6.4 | 12.9 | 0.00 | 0.00 | 0.00 | 19 | 1014.2 |
| 20260510111643 | 21 | 26 | 8.0 | 14.5 | 0.00 | 0.00 | 0.00 | 19 | 1014.1 |
| 20260510110623 | 21 | 19 | 6.4 | 14.5 | 0.00 | 0.00 | 0.00 | 19 | 1014.2 |
| 20260510105638 | 21 | 36 | 6.4 | 11.3 | 0.00 | 0.00 | 0.00 | 19 | 1014.2 |
| 20260510104634 | 21 | 49 | 6.4 | 9.7 | 0.00 | 0.00 | 0.00 | 20 | 1014.1 |
| 20260510102628 | 19 | 36 | 0.0 | 4.8 | 0.00 | 0.00 | 0.00 | 23 | 1014.1 |
| 20260510101635 | 18 | 81 | 4.8 | 6.4 | 0.00 | 0.00 | 0.00 | 26 | 1014.1 |
| 20260510100637 | 19 | 83 | 4.8 | 8.0 | 0.00 | 0.00 | 0.00 | 25 | 1013.9 |
| 20260510095629 | 19 | 80 | 3.2 | 4.8 | 0.00 | 0.00 | 0.00 | 24 | 1013.9 |
| 20260510094626 | 19 | 77 | 3.2 | 4.8 | 0.00 | 0.00 | 0.00 | 24 | 1013.8 |
| 20260510093640 | 19 | 74 | 0.0 | 3.2 | 0.00 | 0.00 | 0.00 | 24 | 1013.7 |
| 20260510092634 | 20 | 76 | 1.6 | 4.8 | 0.00 | 0.00 | 0.00 | 22 | 1013.5 |
| 20260510091625 | 20 | 96 | 3.2 | 6.4 | 0.00 | 0.00 | 0.00 | 22 | 1013.4 |
| 20260510085640 | 22 | 124 | 3.2 | 8.0 | 0.00 | 0.00 | 0.00 | 18 | 1013.4 |
| 20260510084637 | 23 | 46 | 0.0 | 6.4 | 0.00 | 0.00 | 0.00 | 17 | 1013.2 |
| 20260510083625 | 23 | 58 | 0.0 | 4.8 | 0.00 | 0.00 | 0.00 | 16 | 1013.0 |
| 20260510081640 | 23 | 355 | 1.6 | 3.2 | 0.00 | 0.00 | 0.00 | 16 | 1012.9 |
| 20260510080636 | 23 | 355 | 3.2 | 6.4 | 0.00 | 0.00 | 0.00 | 15 | 1013.0 |
| 20260510075636 | 23 | 304 | 4.8 | 11.3 | 0.00 | 0.00 | 0.00 | 15 | 1012.9 |
| 20260510074621 | 23 | 168 | 1.6 | 8.0 | 0.00 | 0.00 | 0.00 | 15 | 1012.9 |
| 20260510073637 | 23 | 153 | 4.8 | 8.0 | 0.00 | 0.00 | 0.00 | 16 | 1012.8 |
| 20260510072634 | 22 | 206 | 4.8 | 6.4 | 0.00 | 0.00 | 0.00 | 17 | 1012.8 |
| 20260510071633 | 22 | 146 | 3.2 | 11.3 | 0.00 | 0.00 | 0.00 | 17 | 1012.8 |
| 20260510070629 | 22 | 67 | 1.6 | 6.4 | 0.00 | 0.00 | 0.00 | 17 | 1012.9 |
| 20260510065636 | 22 | 69 | 0.0 | 3.2 | 0.00 | 0.00 | 0.00 | 16 | 1012.9 |
| 20260510064638 | 22 | 64 | 9.7 | 11.3 | 0.00 | 0.00 | 0.00 | 16 | 1012.9 |
| 20260510063634 | 23 | 123 | 6.4 | 8.0 | 0.00 | 0.00 | 0.00 | 16 | 1012.8 |
| 20260510062641 | 23 | 131 | 3.2 | 6.4 | 0.00 | 0.00 | 0.00 | 16 | 1012.8 |
| 20260510061639 | 23 | 138 | 3.2 | 6.4 | 0.00 | 0.00 | 0.00 | 15 | 1012.8 |
| 20260510060633 | 23 | 138 | 3.2 | 8.0 | 0.00 | 0.00 | 0.00 | 15 | 1012.8 |
| 20260510055734 | 23 | 156 | 3.2 | 8.0 | 0.00 | 0.00 | 0.00 | 15 | 1012.7 |
| 20260510054744 | 23 | 147 | 3.2 | 6.4 | 0.00 | 0.00 | 0.00 | 15 | 1012.8 |
| 20260510053741 | 23 | 135 | 4.8 | 9.7 | 0.00 | 0.00 | 0.00 | 14 | 1012.8 |
| 20260510052737 | 23 | 180 | 8.0 | 12.9 | 0.00 | 0.00 | 0.00 | 14 | 1012.8 |
| 20260510051739 | 24 | 162 | 3.2 | 9.7 | 0.00 | 0.00 | 0.00 | 14 | 1012.9 |
| 20260510050736 | 25 | 152 | 3.2 | 6.4 | 0.00 | 0.00 | 0.00 | 13 | 1012.9 |
| 20260510045725 | 25 | 171 | 4.8 | 8.0 | 0.00 | 0.00 | 0.00 | 12 | 1013.0 |
| 20260510044740 | 26 | 217 | 3.2 | 4.8 | 0.00 | 0.00 | 0.00 | 12 | 1012.2 |
| 20260510043737 | 26 | 223 | 4.8 | 12.9 | 0.00 | 0.00 | 0.00 | 11 | 1012.0 |
| 20260510042733 | 26 | 277 | 9.7 | 16.1 | 0.00 | 0.00 | 0.00 | 11 | 1012.1 |
| 20260510040742 | 26 | 280 | 8.0 | 14.5 | 0.00 | 0.00 | 0.00 | 11 | 1012.0 |
| 20260510035738 | 27 | 255 | 8.0 | 14.5 | 0.00 | 0.00 | 0.00 | 11 | 1011.8 |
| 20260510034736 | 27 | 205 | 6.4 | 14.5 | 0.00 | 0.00 | 0.00 | 11 | 1011.7 |
| 20260510033724 | 27 | 228 | 4.8 | 16.1 | 0.00 | 0.00 | 0.00 | 11 | 1011.5 |
| 20260510032737 | 27 | 265 | 6.4 | 12.9 | 0.00 | 0.00 | 0.00 | 10 | 1011.5 |
| 20260510031730 | 28 | 205 | 8.0 | 16.1 | 0.00 | 0.00 | 0.00 | 10 | 1011.4 |
| 20260510025743 | 28 | 234 | 12.9 | 19.3 | 0.00 | 0.00 | 0.00 | 10 | 1011.2 |
| 20260510024731 | 28 | 272 | 8.0 | 17.7 | 0.00 | 0.00 | 0.00 | 10 | 1011.0 |
| 20260510023726 | 28 | 239 | 11.3 | 17.7 | 0.00 | 0.00 | 0.00 | 10 | 1010.9 |
| 20260510022738 | 29 | 233 | 11.3 | 16.1 | 0.00 | 0.00 | 0.00 | 10 | 1010.7 |
| 20260510021735 | 29 | 229 | 8.0 | 16.1 | 0.00 | 0.00 | 0.00 | 10 | 1010.6 |
| 20260510014724 | 30 | 243 | 9.7 | 17.7 | 0.00 | 0.00 | 0.00 | 9 | 1010.2 |
| 20260510013738 | 31 | 247 | 11.3 | 19.3 | 0.00 | 0.00 | 0.00 | 9 | 1010.1 |
| 20260510012729 | 31 | 234 | 12.9 | 17.7 | 0.00 | 0.00 | 0.00 | 9 | 1010.0 |
| 20260510011727 | 31 | 198 | 8.0 | 16.1 | 0.00 | 0.00 | 0.00 | 9 | 1009.9 |
| 20260510010740 | 32 | 232 | 6.4 | 17.7 | 0.00 | 0.00 | 0.00 | 8 | 1009.9 |
| 20260510005731 | 32 | 163 | 11.3 | 19.3 | 0.00 | 0.00 | 0.00 | 8 | 1009.9 |
| 20260510002726 | 33 | 207 | 11.3 | 20.9 | 0.00 | 0.00 | 0.00 | 8 | 1009.9 |
| 20260510001723 | 33 | 259 | 6.4 | 20.9 | 0.00 | 0.00 | 0.00 | 8 | 1009.9 |
| 20260510000719 | 33 | 200 | 11.3 | 19.3 | 0.00 | 0.00 | 0.00 | 8 | 1009.9 |
| 20260509235726 | 33 | 186 | 8.0 | 19.3 | 0.00 | 0.00 | 0.00 | 8 | 1010.0 |
| 20260509233724 | 33 | 256 | 6.4 | 16.1 | 0.00 | 0.00 | 0.00 | 7 | 1010.3 |
| 20260509232718 | 33 | 201 | 9.7 | 17.7 | 0.00 | 0.00 | 0.00 | 7 | 1010.5 |
| 20260509231736 | 34 | 238 | 6.4 | 14.5 | 0.00 | 0.00 | 0.00 | 7 | 1010.5 |
| 20260509230725 | 34 | 105 | 1.6 | 11.3 | 0.00 | 0.00 | 0.00 | 7 | 1010.6 |
| 20260509224718 | 33 | 193 | 1.6 | 14.5 | 0.00 | 0.00 | 0.00 | 7 | 1011.1 |
| 20260509223731 | 33 | 142 | 8.0 | 17.7 | 0.00 | 0.00 | 0.00 | 7 | 1011.1 |
| 20260509221726 | 33 | 244 | 6.4 | 12.9 | 0.00 | 0.00 | 0.00 | 7 | 1011.3 |
| 20260509220722 | 33 | 105 | 3.2 | 12.9 | 0.00 | 0.00 | 0.00 | 7 | 1011.5 |
| 20260509215720 | 33 | 125 | 12.9 | 17.7 | 0.00 | 0.00 | 0.00 | 7 | 1011.7 |
| 20260509214731 | 33 | 232 | 8.0 | 22.5 | 0.00 | 0.00 | 0.00 | 7 | 1012.0 |
| 20260509212723 | 34 | 190 | 16.1 | 27.4 | 0.00 | 0.00 | 0.00 | 7 | 1012.2 |
| 20260509210725 | 33 | 321 | 9.7 | 19.3 | 0.00 | 0.00 | 0.00 | 7 | 1012.6 |
| 20260509205732 | 33 | 273 | 3.2 | 12.9 | 0.00 | 0.00 | 0.00 | 7 | 1012.7 |
| 20260509204730 | 33 | 122 | 8.0 | 25.7 | 0.00 | 0.00 | 0.00 | 7 | 1012.9 |
| 20260509202717 | 33 | 209 | 14.5 | 25.7 | 0.00 | 0.00 | 0.00 | 7 | 1013.4 |
| 20260509201717 | 33 | 205 | 11.3 | 22.5 | 0.00 | 0.00 | 0.00 | 7 | 1013.5 |
| 20260509200728 | 33 | 164 | 12.9 | 24.1 | 0.00 | 0.00 | 0.00 | 8 | 1013.6 |
| 20260509193720 | 32 | 202 | 3.2 | 19.3 | 0.00 | 0.00 | 0.00 | 9 | 1014.0 |
| 20260509191724 | 32 | 239 | 11.3 | 16.1 | 0.00 | 0.00 | 0.00 | 10 | 1014.2 |
| 20260509185726 | 31 | 269 | 4.8 | 9.7 | 0.00 | 0.00 | 0.00 | 11 | 1014.4 |
| 20260509184720 | 31 | 264 | 6.4 | 14.5 | 0.00 | 0.00 | 0.00 | 11 | 1014.6 |
| 20260509183717 | 30 | 248 | 9.7 | 14.5 | 0.00 | 0.00 | 0.00 | 12 | 1014.7 |
| 20260509182726 | 30 | 305 | 6.4 | 12.9 | 0.00 | 0.00 | 0.00 | 12 | 1014.9 |
| 20260509181719 | 30 | 239 | 6.4 | 12.9 | 0.00 | 0.00 | 0.00 | 12 | 1015.1 |
| 20260509180713 | 30 | 251 | 6.4 | 12.9 | 0.00 | 0.00 | 0.00 | 13 | 1015.2 |
| 20260509175724 | 29 | 280 | 4.8 | 14.5 | 0.00 | 0.00 | 0.00 | 14 | 1015.3 |
| 20260509174717 | 29 | 265 | 3.2 | 14.5 | 0.00 | 0.00 | 0.00 | 14 | 1015.4 |
| 20260509172712 | 28 | 247 | 3.2 | 11.3 | 0.00 | 0.00 | 0.00 | 15 | 1015.4 |
| 20260509171721 | 28 | 277 | 0.0 | 12.9 | 0.00 | 0.00 | 0.00 | 14 | 1015.6 |
| 20260509170713 | 28 | 237 | 1.6 | 8.0 | 0.00 | 0.00 | 0.00 | 14 | 1015.6 |
| 20260509165710 | 27 | 259 | 4.8 | 9.7 | 0.00 | 0.00 | 0.00 | 15 | 1015.5 |
| 20260509164724 | 26 | 253 | 3.2 | 9.7 | 0.00 | 0.00 | 0.00 | 15 | 1015.5 |
| 20260509163718 | 26 | 237 | 4.8 | 9.7 | 0.00 | 0.00 | 0.00 | 17 | 1015.7 |
| 20260509162712 | 25 | 212 | 1.6 | 8.0 | 0.00 | 0.00 | 0.00 | 17 | 1015.6 |
| 20260509160725 | 25 | 308 | 4.8 | 9.7 | 0.00 | 0.00 | 0.00 | 19 | 1015.7 |
| 20260509155721 | 24 | 259 | 6.4 | 11.3 | 0.00 | 0.00 | 0.00 | 19 | 1015.7 |
| 20260509153727 | 24 | 205 | 4.8 | 9.7 | 0.00 | 0.00 | 0.00 | 20 | 1015.7 |
| 20260509152715 | 23 | 234 | 4.8 | 8.0 | 0.00 | 0.00 | 0.00 | 20 | 1015.8 |
| 20260509151709 | 23 | 207 | 4.8 | 12.9 | 0.00 | 0.00 | 0.00 | 21 | 1015.8 |
| 20260509150717 | 23 | 160 | 6.4 | 11.3 | 0.00 | 0.00 | 0.00 | 21 | 1015.8 |
| 20260509144719 | 22 | 259 | 4.8 | 9.7 | 0.00 | 0.00 | 0.00 | 24 | 1015.6 |
| 20260509143714 | 21 | 259 | 3.2 | 3.2 | 0.00 | 0.00 | 0.00 | 24 | 1015.7 |